Time,TemperatureF,DewpointF,PressureIn,WindDirection,WindDirectionDegrees,WindSpeedMPH,WindSpeedGustMPH,Humidity,HourlyPrecipIn,Conditions,Clouds,dailyrainin,SoftwareType,DateUTC
2013-03-30 00:00:00,37.9,36.3,30.25,West,271,0.0,21.0,94,0.00,,,0.00,Wunderground v.1.15,2013-03-30 04:00:00,
2013-03-30 00:05:00,37.9,36.3,30.25,West,271,0.0,21.0,94,0.00,,,0.00,Wunderground v.1.15,2013-03-30 04:05:00,
2013-03-30 00:10:00,37.9,36.1,30.25,West,271,1.0,1.0,93,0.00,,,0.00,Wunderground v.1.15,2013-03-30 04:10:00,
2013-03-30 00:15:00,37.9,36.3,30.25,West,271,0.0,21.0,94,0.00,,,0.00,Wunderground v.1.15,2013-03-30 04:15:00,
2013-03-30 00:20:00,38.0,36.4,30.25,West,271,0.0,21.0,94,0.00,,,0.00,Wunderground v.1.15,2013-03-30 04:20:00,
2013-03-30 00:25:00,37.9,36.3,30.25,West,271,0.0,21.0,94,0.00,,,0.00,Wunderground v.1.15,2013-03-30 04:25:00,
2013-03-30 00:30:00,38.0,36.4,30.25,West,271,0.0,21.0,94,0.00,,,0.00,Wunderground v.1.15,2013-03-30 04:30:00,
2013-03-30 00:35:00,38.0,36.4,30.24,West,271,0.0,21.0,94,0.00,,,0.01,Wunderground v.1.15,2013-03-30 04:35:00,
2013-03-30 00:40:00,37.9,36.3,30.24,West,271,0.0,21.0,94,0.00,,,0.01,Wunderground v.1.15,2013-03-30 04:40:00,
2013-03-30 00:45:00,37.9,36.3,30.24,West,271,0.0,21.0,94,0.04,,,0.02,Wunderground v.1.15,2013-03-30 04:45:00,
2013-03-30 00:50:00,37.9,36.3,30.24,West,271,0.0,21.0,94,0.04,,,0.02,Wunderground v.1.15,2013-03-30 04:50:00,
2013-03-30 01:00:00,37.7,36.1,30.24,West,271,1.0,21.0,94,0.07,,,0.03,Wunderground v.1.15,2013-03-30 05:00:00,
2013-03-30 10:50:00,45.7,42.6,30.20,North,353,1.0,1.0,89,0.00,,,0.30,Wunderground v.1.15,2013-03-30 14:50:00,
2013-03-30 10:55:00,45.8,43.0,30.20,North,352,1.0,21.0,90,0.00,,,0.30,Wunderground v.1.15,2013-03-30 14:55:00,
2013-03-30 11:00:00,45.8,43.0,30.19,North,11,0.0,21.0,90,0.00,,,0.30,Wunderground v.1.15,2013-03-30 15:00:00,
2013-03-30 11:05:00,45.9,43.4,30.19,North,11,0.0,21.0,91,0.00,,,0.30,Wunderground v.1.15,2013-03-30 15:05:00,
2013-03-30 11:10:00,46.1,43.0,30.20,NNW,337,0.0,21.0,89,0.00,,,0.30,Wunderground v.1.15,2013-03-30 15:10:00,
2013-03-30 11:15:00,46.2,42.5,30.20,NNE,19,0.0,21.0,87,0.00,,,0.30,Wunderground v.1.15,2013-03-30 15:15:00,
2013-03-30 11:20:00,46.4,42.4,30.20,East,79,0.0,21.0,86,0.00,,,0.30,Wunderground v.1.15,2013-03-30 15:20:00,
2013-03-30 11:30:00,46.9,42.3,30.20,North,4,1.0,21.0,84,0.00,,,0.30,Wunderground v.1.15,2013-03-30 15:30:00,
2013-03-30 11:35:00,47.4,43.4,30.20,NNE,23,0.0,21.0,86,0.00,,,0.30,Wunderground v.1.15,2013-03-30 15:35:00,
2013-03-30 11:40:00,48.1,43.8,30.20,NNE,18,1.0,21.0,85,0.00,,,0.30,Wunderground v.1.15,2013-03-30 15:40:00,
2013-03-30 11:45:00,49.7,44.1,30.20,SW,219,1.0,21.0,81,0.00,,,0.30,Wunderground v.1.15,2013-03-30 15:45:00,
2013-03-30 11:50:00,50.1,44.5,30.20,East,91,1.0,21.0,81,0.00,,,0.30,Wunderground v.1.15,2013-03-30 15:50:00,
2013-03-30 11:55:00,50.1,44.8,30.19,NW,307,2.0,21.0,82,0.00,,,0.30,Wunderground v.1.15,2013-03-30 15:55:00,
2013-03-30 12:00:00,49.9,43.6,30.19,WNW,283,2.0,21.0,79,0.00,,,0.30,Wunderground v.1.15,2013-03-30 16:00:00,
2013-03-30 12:05:00,49.8,43.5,30.19,ENE,70,1.0,21.0,79,0.00,,,0.30,Wunderground v.1.15,2013-03-30 16:05:00,
2013-03-30 12:10:00,50.3,43.7,30.18,East,96,1.0,1.0,78,0.00,,,0.30,Wunderground v.1.15,2013-03-30 16:10:00,
2013-03-30 12:15:00,51.0,45.4,30.18,ESE,114,1.0,21.0,81,0.00,,,0.30,Wunderground v.1.15,2013-03-30 16:15:00,
2013-03-30 12:20:00,51.3,44.7,30.18,East,94,1.0,21.0,78,0.00,,,0.30,Wunderground v.1.15,2013-03-30 16:20:00,
2013-03-30 12:25:00,51.2,42.5,30.18,East,88,1.0,21.0,72,0.00,,,0.30,Wunderground v.1.15,2013-03-30 16:25:00,
2013-03-30 12:30:00,51.0,41.9,30.18,ENE,70,2.0,2.0,71,0.00,,,0.30,Wunderground v.1.15,2013-03-30 16:30:00,
2013-03-30 12:35:00,51.2,42.1,30.18,WSW,256,2.0,21.0,71,0.00,,,0.30,Wunderground v.1.15,2013-03-30 16:35:00,
2013-03-30 12:45:00,51.7,41.9,30.17,East,96,1.0,2.0,69,0.00,,,0.30,Wunderground v.1.15,2013-03-30 16:45:00,
2013-03-30 12:55:00,51.6,41.8,30.17,East,96,2.0,21.0,69,0.00,,,0.30,Wunderground v.1.15,2013-03-30 16:55:00,
2013-03-30 13:00:00,51.8,41.6,30.16,ENE,68,3.0,21.0,68,0.00,,,0.30,Wunderground v.1.15,2013-03-30 17:00:00,
2013-03-30 13:05:00,52.0,41.0,30.16,WSW,249,3.0,21.0,66,0.00,,,0.30,Wunderground v.1.15,2013-03-30 17:05:00,
2013-03-30 13:10:00,52.4,41.8,30.16,ESE,118,3.0,21.0,67,0.00,,,0.30,Wunderground v.1.15,2013-03-30 17:10:00,
2013-03-30 13:15:00,53.5,42.0,30.16,ESE,104,2.0,21.0,65,0.00,,,0.30,Wunderground v.1.15,2013-03-30 17:15:00,
2013-03-30 13:20:00,53.2,42.1,30.16,SE,133,2.0,2.0,66,0.00,,,0.30,Wunderground v.1.15,2013-03-30 17:20:00,
2013-03-30 13:25:00,53.4,41.1,30.16,ENE,65,2.0,21.0,63,0.00,,,0.30,Wunderground v.1.15,2013-03-30 17:25:00,
2013-03-30 13:30:00,53.4,41.5,30.16,South,172,2.0,2.0,64,0.00,,,0.30,Wunderground v.1.15,2013-03-30 17:30:00,
2013-03-30 13:35:00,53.8,41.1,30.16,ESE,107,2.0,3.0,62,0.00,,,0.30,Wunderground v.1.15,2013-03-30 17:35:00,
2013-03-30 13:40:00,53.3,40.6,30.16,ESE,109,2.0,2.0,62,0.00,,,0.30,Wunderground v.1.15,2013-03-30 17:40:00,
2013-03-30 13:45:00,52.8,40.1,30.15,East,89,3.0,4.0,62,0.00,,,0.30,Wunderground v.1.15,2013-03-30 17:45:00,
2013-03-30 13:50:00,53.2,40.9,30.15,East,86,3.0,3.0,63,0.00,,,0.30,Wunderground v.1.15,2013-03-30 17:50:00,
2013-03-30 13:55:00,53.5,40.4,30.15,ESE,121,3.0,21.0,61,0.00,,,0.30,Wunderground v.1.15,2013-03-30 17:55:00,
2013-03-30 14:00:00,53.9,40.8,30.15,SE,136,3.0,3.0,61,0.00,,,0.30,Wunderground v.1.15,2013-03-30 18:00:00,
2013-03-30 14:10:00,54.4,40.4,30.15,South,183,1.0,21.0,59,0.00,,,0.30,Wunderground v.1.15,2013-03-30 18:10:00,
2013-03-30 14:15:00,54.6,41.0,30.15,ESE,119,1.0,21.0,60,0.00,,,0.30,Wunderground v.1.15,2013-03-30 18:15:00,
2013-03-30 14:20:00,54.9,40.4,30.15,SE,127,1.0,21.0,58,0.00,,,0.30,Wunderground v.1.15,2013-03-30 18:20:00,
2013-03-30 14:30:00,54.7,40.2,30.14,East,86,3.0,21.0,58,0.00,,,0.30,Wunderground v.1.15,2013-03-30 18:30:00,
2013-03-30 14:35:00,54.9,40.4,30.14,ESE,112,3.0,21.0,58,0.00,,,0.30,Wunderground v.1.15,2013-03-30 18:35:00,
2013-03-30 14:40:00,55.0,40.5,30.14,SE,139,4.0,4.0,58,0.00,,,0.30,Wunderground v.1.15,2013-03-30 18:40:00,
2013-03-30 14:45:00,55.2,40.2,30.13,ESE,110,3.0,21.0,57,0.00,,,0.30,Wunderground v.1.15,2013-03-30 18:45:00,
2013-03-30 14:50:00,55.0,40.5,30.13,East,85,3.0,21.0,58,0.00,,,0.30,Wunderground v.1.15,2013-03-30 18:50:00,
2013-03-30 15:00:00,56.1,41.5,30.13,NE,46,3.0,3.0,58,0.00,,,0.30,Wunderground v.1.15,2013-03-30 19:00:00,
2013-03-30 15:05:00,56.3,40.8,30.13,SW,215,2.0,5.0,56,0.00,,,0.30,Wunderground v.1.15,2013-03-30 19:05:00,
2013-03-30 15:10:00,56.1,40.6,30.13,WSW,257,3.0,3.0,56,0.00,,,0.30,Wunderground v.1.15,2013-03-30 19:10:00,
2013-03-30 15:15:00,56.3,42.1,30.12,East,90,2.0,21.0,59,0.00,,,0.30,Wunderground v.1.15,2013-03-30 19:15:00,
2013-03-30 15:25:00,56.8,40.8,30.12,ENE,74,2.0,4.0,55,0.00,,,0.30,Wunderground v.1.15,2013-03-30 19:25:00,
2013-03-30 15:30:00,56.3,39.9,30.12,WNW,299,3.0,3.0,54,0.00,,,0.30,Wunderground v.1.15,2013-03-30 19:30:00,
2013-03-30 15:35:00,56.2,40.2,30.12,ESE,116,2.0,4.0,55,0.00,,,0.30,Wunderground v.1.15,2013-03-30 19:35:00,
2013-03-30 15:40:00,55.8,39.9,30.11,ESE,122,3.0,3.0,55,0.00,,,0.30,Wunderground v.1.15,2013-03-30 19:40:00,
2013-03-30 15:45:00,56.1,40.6,30.11,SSW,200,3.0,21.0,56,0.00,,,0.30,Wunderground v.1.15,2013-03-30 19:45:00,
2013-03-30 15:50:00,56.4,40.0,30.11,SSW,198,3.0,21.0,54,0.00,,,0.30,Wunderground v.1.15,2013-03-30 19:50:00,
2013-03-30 15:55:00,56.4,39.5,30.11,ESE,121,4.0,21.0,53,0.00,,,0.30,Wunderground v.1.15,2013-03-30 19:55:00,
2013-03-30 16:00:00,56.6,39.7,30.11,SSW,193,3.0,3.0,53,0.00,,,0.30,Wunderground v.1.15,2013-03-30 20:00:00,
2013-03-30 16:05:00,57.0,40.5,30.11,SE,141,3.0,21.0,54,0.00,,,0.30,Wunderground v.1.15,2013-03-30 20:05:00,
2013-03-30 16:10:00,57.2,39.2,30.11,ENE,76,3.0,3.0,51,0.00,,,0.30,Wunderground v.1.15,2013-03-30 20:10:00,
2013-03-30 16:15:00,57.1,39.6,30.11,SE,134,3.0,4.0,52,0.00,,,0.30,Wunderground v.1.15,2013-03-30 20:15:00,
2013-03-30 16:20:00,56.7,40.2,30.10,ENE,77,4.0,21.0,54,0.00,,,0.30,Wunderground v.1.15,2013-03-30 20:20:00,
2013-03-30 16:25:00,56.5,40.5,30.10,ENE,71,4.0,21.0,55,0.00,,,0.30,Wunderground v.1.15,2013-03-30 20:25:00,
2013-03-30 16:35:00,57.0,40.0,30.10,East,91,2.0,21.0,53,0.00,,,0.30,Wunderground v.1.15,2013-03-30 20:35:00,
2013-03-30 16:40:00,56.6,39.7,30.10,ESE,103,3.0,21.0,53,0.00,,,0.30,Wunderground v.1.15,2013-03-30 20:40:00,
2013-03-30 16:45:00,56.6,41.1,30.09,ESE,117,3.0,21.0,56,0.00,,,0.30,Wunderground v.1.15,2013-03-30 20:45:00,
2013-03-30 16:50:00,56.6,40.1,30.09,ESE,118,3.0,21.0,54,0.00,,,0.30,Wunderground v.1.15,2013-03-30 20:50:00,
2013-03-30 16:55:00,56.6,39.2,30.09,East,80,3.0,21.0,52,0.00,,,0.30,Wunderground v.1.15,2013-03-30 20:55:00,
2013-03-30 17:05:00,56.7,39.3,30.09,ESE,104,3.0,4.0,52,0.00,,,0.30,Wunderground v.1.15,2013-03-30 21:05:00,
2013-03-30 17:10:00,56.7,39.3,30.09,East,89,3.0,3.0,52,0.00,,,0.30,Wunderground v.1.15,2013-03-30 21:10:00,
2013-03-30 17:15:00,56.8,39.4,30.09,ESE,105,4.0,4.0,52,0.00,,,0.30,Wunderground v.1.15,2013-03-30 21:15:00,
2013-03-30 17:20:00,56.9,38.9,30.09,WSW,245,3.0,3.0,51,0.00,,,0.30,Wunderground v.1.15,2013-03-30 21:20:00,
2013-03-30 17:25:00,57.2,39.2,30.09,ESE,106,2.0,21.0,51,0.00,,,0.30,Wunderground v.1.15,2013-03-30 21:25:00,
2013-03-30 17:30:00,57.5,39.5,30.09,SSE,167,2.0,21.0,51,0.00,,,0.30,Wunderground v.1.15,2013-03-30 21:30:00,
2013-03-30 17:35:00,57.6,39.6,30.09,West,269,2.0,21.0,51,0.00,,,0.30,Wunderground v.1.15,2013-03-30 21:35:00,
2013-03-30 17:45:00,57.4,38.9,30.09,SSE,160,3.0,21.0,50,0.00,,,0.30,Wunderground v.1.15,2013-03-30 21:45:00,
2013-03-30 17:55:00,57.2,38.7,30.08,East,86,3.0,21.0,50,0.00,,,0.30,Wunderground v.1.15,2013-03-30 21:55:00,
2013-03-30 18:00:00,56.9,38.9,30.08,SE,131,4.0,4.0,51,0.00,,,0.30,Wunderground v.1.15,2013-03-30 22:00:00,
2013-03-30 18:05:00,56.7,38.8,30.08,SE,131,4.0,21.0,51,0.00,,,0.30,Wunderground v.1.15,2013-03-30 22:05:00,
2013-03-30 18:10:00,56.6,38.7,30.08,East,97,3.0,3.0,51,0.00,,,0.30,Wunderground v.1.15,2013-03-30 22:10:00,
2013-03-30 18:15:00,56.6,39.2,30.08,ESE,113,2.0,5.0,52,0.00,,,0.30,Wunderground v.1.15,2013-03-30 22:15:00,
2013-03-30 18:20:00,56.5,38.6,30.08,ESE,105,3.0,21.0,51,0.00,,,0.30,Wunderground v.1.15,2013-03-30 22:20:00,
2013-03-30 18:30:00,56.2,38.8,30.08,SSE,166,3.0,21.0,52,0.00,,,0.30,Wunderground v.1.15,2013-03-30 22:30:00,
2013-03-30 18:35:00,56.1,38.7,30.08,East,84,2.0,21.0,52,0.00,,,0.30,Wunderground v.1.15,2013-03-30 22:35:00,
2013-03-30 18:40:00,55.9,39.0,30.08,SSW,199,3.0,3.0,53,0.00,,,0.30,Wunderground v.1.15,2013-03-30 22:40:00,
2013-03-30 18:45:00,55.8,38.9,30.08,ENE,65,3.0,6.0,53,0.00,,,0.30,Wunderground v.1.15,2013-03-30 22:45:00,
2013-03-30 18:50:00,55.7,38.8,30.08,SSW,195,3.0,3.0,53,0.00,,,0.30,Wunderground v.1.15,2013-03-30 22:50:00,
2013-03-30 18:55:00,55.6,38.7,30.08,SE,129,3.0,21.0,53,0.00,,,0.30,Wunderground v.1.15,2013-03-30 22:55:00,
2013-03-30 19:00:00,55.5,38.6,30.08,East,87,3.0,3.0,53,0.00,,,0.30,Wunderground v.1.15,2013-03-30 23:00:00,
2013-03-30 19:05:00,55.4,39.0,30.08,ESE,121,3.0,4.0,54,0.00,,,0.30,Wunderground v.1.15,2013-03-30 23:05:00,
2013-03-30 19:10:00,55.3,38.9,30.08,ESE,106,3.0,3.0,54,0.00,,,0.30,Wunderground v.1.15,2013-03-30 23:10:00,
2013-03-30 19:15:00,55.2,38.8,30.08,SSE,151,3.0,21.0,54,0.00,,,0.30,Wunderground v.1.15,2013-03-30 23:15:00,
2013-03-30 19:20:00,55.0,38.6,30.08,East,97,2.0,21.0,54,0.00,,,0.30,Wunderground v.1.15,2013-03-30 23:20:00,
2013-03-30 19:25:00,54.9,39.0,30.08,SE,129,2.0,21.0,55,0.00,,,0.30,Wunderground v.1.15,2013-03-30 23:25:00,
2013-03-30 19:30:00,54.7,38.8,30.08,SE,141,2.0,2.0,55,0.00,,,0.30,Wunderground v.1.15,2013-03-30 23:30:00,
2013-03-30 19:35:00,54.5,38.7,30.08,SE,136,2.0,21.0,55,0.00,,,0.30,Wunderground v.1.15,2013-03-30 23:35:00,
2013-03-30 19:40:00,54.3,39.4,30.08,ESE,121,2.0,21.0,57,0.00,,,0.30,Wunderground v.1.15,2013-03-30 23:40:00,
2013-03-30 19:45:00,54.1,39.2,30.08,SE,127,2.0,21.0,57,0.00,,,0.30,Wunderground v.1.15,2013-03-30 23:45:00,
2013-03-30 19:50:00,53.9,38.6,30.07,SE,136,2.0,2.0,56,0.00,,,0.30,Wunderground v.1.15,2013-03-30 23:50:00,
2013-03-30 19:55:00,53.9,38.6,30.07,SE,138,3.0,4.0,56,0.00,,,0.30,Wunderground v.1.15,2013-03-30 23:55:00,
2013-03-30 20:00:00,53.7,38.4,30.07,SE,134,3.0,3.0,56,0.00,,,0.30,Wunderground v.1.15,2013-03-31 00:00:00,
2013-03-30 20:10:00,53.4,38.5,30.07,ESE,104,2.0,21.0,57,0.00,,,0.30,Wunderground v.1.15,2013-03-31 00:10:00,
2013-03-30 20:15:00,53.4,38.5,30.07,ESE,121,3.0,21.0,57,0.00,,,0.30,Wunderground v.1.15,2013-03-31 00:15:00,
2013-03-30 20:20:00,53.3,38.9,30.07,ESE,108,3.0,21.0,58,0.00,,,0.30,Wunderground v.1.15,2013-03-31 00:20:00,
2013-03-30 20:25:00,53.2,38.8,30.07,SE,130,3.0,21.0,58,0.00,,,0.30,Wunderground v.1.15,2013-03-31 00:25:00,
2013-03-30 20:30:00,53.1,38.7,30.07,SE,146,2.0,2.0,58,0.00,,,0.30,Wunderground v.1.15,2013-03-31 00:30:00,
2013-03-30 20:35:00,53.0,38.6,30.07,East,94,2.0,21.0,58,0.00,,,0.30,Wunderground v.1.15,2013-03-31 00:35:00,
2013-03-30 20:45:00,52.9,38.5,30.07,ESE,121,2.0,21.0,58,0.00,,,0.30,Wunderground v.1.15,2013-03-31 00:45:00,
2013-03-30 20:50:00,52.8,38.9,30.07,East,100,2.0,21.0,59,0.00,,,0.30,Wunderground v.1.15,2013-03-31 00:50:00,
2013-03-30 20:55:00,52.7,38.8,30.07,ESE,108,2.0,21.0,59,0.00,,,0.30,Wunderground v.1.15,2013-03-31 00:55:00,
2013-03-30 21:05:00,52.5,38.6,30.07,ESE,113,2.0,21.0,59,0.00,,,0.30,Wunderground v.1.15,2013-03-31 01:05:00,
2013-03-30 21:10:00,52.5,38.6,30.07,SE,134,2.0,21.0,59,0.00,,,0.30,Wunderground v.1.15,2013-03-31 01:10:00,
2013-03-30 21:15:00,52.4,38.9,30.07,SSE,150,2.0,21.0,60,0.00,,,0.30,Wunderground v.1.15,2013-03-31 01:15:00,
2013-03-30 21:20:00,52.3,38.8,30.07,SSE,151,2.0,2.0,60,0.00,,,0.30,Wunderground v.1.15,2013-03-31 01:20:00,
2013-03-30 21:25:00,52.1,38.6,30.07,ESE,108,1.0,21.0,60,0.00,,,0.30,Wunderground v.1.15,2013-03-31 01:25:00,
2013-03-30 21:35:00,51.8,38.8,30.07,SE,141,2.0,21.0,61,0.00,,,0.30,Wunderground v.1.15,2013-03-31 01:35:00,
2013-03-30 21:40:00,51.7,38.7,30.07,SSE,150,2.0,21.0,61,0.00,,,0.30,Wunderground v.1.15,2013-03-31 01:40:00,
2013-03-30 21:50:00,51.1,38.5,30.07,ESE,108,1.0,21.0,62,0.00,,,0.30,Wunderground v.1.15,2013-03-31 01:50:00,
2013-03-30 21:55:00,50.9,38.7,30.07,SE,146,1.0,21.0,63,0.00,,,0.30,Wunderground v.1.15,2013-03-31 01:55:00,
2013-03-30 22:00:00,50.6,38.9,30.07,ESE,105,1.0,1.0,64,0.00,,,0.30,Wunderground v.1.15,2013-03-31 02:00:00,
2013-03-30 22:05:00,50.5,38.8,30.06,East,85,1.0,21.0,64,0.00,,,0.30,Wunderground v.1.15,2013-03-31 02:05:00,
2013-03-30 22:15:00,50.1,38.8,30.07,SE,146,1.0,21.0,65,0.00,,,0.30,Wunderground v.1.15,2013-03-31 02:15:00,
2013-03-30 22:20:00,49.7,38.4,30.06,SE,141,1.0,1.0,65,0.00,,,0.30,Wunderground v.1.15,2013-03-31 02:20:00,
2013-03-30 22:25:00,49.5,38.6,30.07,SE,146,1.0,2.0,66,0.00,,,0.30,Wunderground v.1.15,2013-03-31 02:25:00,
2013-03-30 22:30:00,49.3,38.4,30.06,SE,136,0.0,21.0,66,0.00,,,0.30,Wunderground v.1.15,2013-03-31 02:30:00,
2013-03-30 22:35:00,49.2,38.7,30.06,SSE,148,1.0,21.0,67,0.00,,,0.30,Wunderground v.1.15,2013-03-31 02:35:00,
2013-03-30 22:40:00,49.1,38.6,30.06,SE,146,0.0,21.0,67,0.00,,,0.30,Wunderground v.1.15,2013-03-31 02:40:00,
2013-03-30 22:45:00,49.2,38.7,30.06,SSE,166,0.0,21.0,67,0.00,,,0.30,Wunderground v.1.15,2013-03-31 02:45:00,
2013-03-30 22:50:00,49.5,38.6,30.06,ESE,108,1.0,21.0,66,0.00,,,0.30,Wunderground v.1.15,2013-03-31 02:50:00,
2013-03-30 22:55:00,49.6,38.7,30.06,SE,136,1.0,21.0,66,0.00,,,0.30,Wunderground v.1.15,2013-03-31 02:55:00,
2013-03-30 23:00:00,49.6,38.7,30.06,SE,139,1.0,1.0,66,0.00,,,0.30,Wunderground v.1.15,2013-03-31 03:00:00,
2013-03-30 23:05:00,49.6,38.7,30.06,South,186,1.0,21.0,66,0.00,,,0.30,Wunderground v.1.15,2013-03-31 03:05:00,
2013-03-30 23:10:00,49.8,38.9,30.06,SSE,160,0.0,21.0,66,0.00,,,0.30,Wunderground v.1.15,2013-03-31 03:10:00,
2013-03-30 23:15:00,49.8,38.9,30.06,ESE,123,0.0,21.0,66,0.00,,,0.30,Wunderground v.1.15,2013-03-31 03:15:00,
2013-03-30 23:20:00,50.1,38.8,30.06,SSE,149,1.0,1.0,65,0.00,,,0.30,Wunderground v.1.15,2013-03-31 03:20:00,
2013-03-30 23:25:00,50.1,38.8,30.06,South,186,0.0,21.0,65,0.00,,,0.30,Wunderground v.1.15,2013-03-31 03:25:00,
2013-03-30 23:30:00,50.1,38.8,30.06,South,176,0.0,21.0,65,0.00,,,0.30,Wunderground v.1.15,2013-03-31 03:30:00,
2013-03-30 23:40:00,50.2,38.9,30.05,SE,125,0.0,21.0,65,0.00,,,0.30,Wunderground v.1.15,2013-03-31 03:40:00,
2013-03-30 23:45:00,50.3,39.0,30.05,SE,141,0.0,21.0,65,0.00,,,0.30,Wunderground v.1.15,2013-03-31 03:45:00,
2013-03-30 23:55:00,50.4,38.7,30.05,SE,133,0.0,21.0,64,0.00,,,0.30,Wunderground v.1.15,2013-03-31 03:55:00,